Flag for Germany Weather past 2 weeks in Bamberg, Bavaria, Germany

56 °F

Light freezing rain. Low clouds.

Feels Like: 56 °F
Forecast: 47 / 64 °F
Wind: 2 mph from Southeast

Location: Bamberg

Current Time: Oct 4, 2015 at 5:29:55 PM

Latest Report: Oct 4, 2015 at 5:00 PM

Visibility: 3 mi

Pressure: 30.07 "Hg

Humidity: 94%

Dew point: 54 °F

Location of BambergLocation

Historic Weather in Bamberg — Graph


Bamberg temperature yesterday

Maximum temperature yesterday: 66 °F (at 4:00 PM)
Minimum temperature yesterday: 39 °F (at 8:00 AM)
Average temperature yesterday: 53 °F

Past Weeks' High & Low Weather Summary

High70 °F (Oct 2, 4:00 PM)100% (Sep 19, 11:00 PM)30.59 "Hg (Sep 19, 11:00 PM)
Low33 °F (Oct 2, 7:00 AM)32% (Oct 2, 3:00 PM)29.63 "Hg (Sep 22, 6:00 PM)
Average53 °F77%30.21 "Hg
* Reported Sep 19 4:00 PM — Oct 4 4:00 PM, Bamberg, Weather by CustomWeather, © 2015

Note: Actual official high and low records may vary slightly from our data, if they occured in-between our weather recording intervals... More about our weather records


Bamberg weather history for previous 24 hours

Time TempWeatherWind HumidityBarometerVisibility
4:00 PM
Sun, Oct 4
54 °FLight rain. Low clouds.1 mph97%30.07 "Hg2 mi
3:00 PM54 °FLight rain. Low clouds.2 mph97%30.08 "Hg2 mi
2:00 PM53 °FLight rain. Low clouds.1 mph96%30.09 "Hg2 mi
1:00 PM52 °FLight rain. Low clouds.1 mph96%30.10 "Hg2 mi
12:00 PM51 °FLight rain. Overcast.2 mph95%30.09 "Hg2 mi
11:00 AM50 °FLight rain. Overcast.2 mph96%30.09 "Hg3 mi
10:00 AM47 °FLight rain. Overcast.No wind95%30.08 "Hg4 mi
9:00 AM45 °FLight rain. Overcast.No wind97%30.07 "Hg4 mi
8:00 AM43 °FLight rain. Overcast.1 mph98%30.06 "Hg4 mi
7:00 AM41 °FFog.1 mph100%30.04 "Hg3 mi
5:00 AM38 °FFog.1 mph98%30.02 "Hg4 mi
4:00 AM38 °FFog.No wind98%30.03 "Hg3 mi
3:00 AM40 °FFog.1 mph100%30.04 "Hg4 mi
2:00 AM38 °FOvercast.No wind97%30.04 "Hg7 mi
1:00 AM40 °FFog.1 mph99%30.03 "Hg2 mi
11:00 PM
Sat, Oct 3
42 °FClear.1 mph97%30.01 "Hg9 mi
10:00 PM45 °FClear.1 mph97%30.01 "Hg7 mi
9:00 PM47 °FClear.1 mph96%30.00 "Hg6 mi
8:00 PM49 °FPassing clouds.1 mph92%29.99 "Hg13 mi
7:00 PM56 °FPassing clouds.1 mph78%29.98 "Hg14 mi
6:00 PM65 °FOvercast.2 mph49%29.96 "Hg22 mi
5:00 PM66 °FOvercast.2 mph46%29.97 "Hg22 mi
Weather by CustomWeather, © 2015

See weather overviewHow to use our weather pages